Location: *
(45.1333°S, 169.6333°W)
Time: 21:18:11
(UTC+00:00)

USA 305 - Pass Details

Date: 26 May 2022
Orbit: 549 x 553 km, 54.0° (Epoch: 14 June)

Event Time Altitude Azimuth Distance (km) Brightness Sun altitude
Rises 05:09:21 0° 236° (SW) 2,772 7.0 -13.7°
Reaches altitude 10° 05:11:41 10° 229° (SW) 1,872 6.0 -14.1°
Maximum altitude 05:15:48 47° 154° (SSE) 759 3.2 -14.8°
Enters shadow 05:17:46 27° 95° (E) 1,109 3.8 -15.2°
